Regional Weather Roundup
Issued by NWS

Home | Current Version | Previous Version | Graphics & Text | Print | Product List | Glossary On
Versions: 1 2 3 4 5 6 7 8 9 10 11 12 13 14 15 16 17 18 19 20 21 22 23 24 25 26 27 28 29 30 31 32 33 34 35 36 37 38 39 40 41 42 43 44 45 46 47 48 49 50
000
ASUS43 KLOT 252208
RWRIL

ILLINOIS REGIONAL WEATHER ROUNDUP
NATIONAL WEATHER SERVICE CHICAGO/ROMEOVILLE IL
500 PM CDT MON MAY 25 2015

NOTE: "FAIR" INDICATES FEW OR NO CLOUDS BELOW 12,000 FEET WITH NO
SIGNIFICANT WEATHER AND/OR OBSTRUCTIONS TO VISIBILITY.

* THESE STATIONS ARE NOT UNDER NWS QUALITY CONTROL. THEY ALSO MAY NOT
  REPORT WEATHER SUCH AS PRECIPITATION OR FOG.

ILZ001-002-007-009-015-016-024-252300-
NORTHWEST ILLINOIS

CITY           SKY/WX    TMP DP  RH WIND       PRES   REMARKS
MOLINE         MOSUNNY   78  60  53 S20G26    29.89R
STERLING*      MOSUNNY   79  63  57 SW10G20   29.91R HX  80
SAVANNA*       PTSUNNY   79  59  50 SW13G25   29.88R HX  80
$$

ILZ003-004-008-010-011-017-018-252300-
NORTH CENTRAL ILLINOIS

CITY           SKY/WX    TMP DP  RH WIND       PRES   REMARKS
ROCKFORD       MOSUNNY   80  63  55 SW17G25   29.90F HX  81
FREEPORT*      MOSUNNY   77  63  60 SW18G25   29.90F
ROCHELLE*      MOSUNNY   77  64  63 S23       29.91F
DE KALB*       PTSUNNY   74  62  65 SW18      29.92F
PERU*          SUNNY     80  62  53 SW14G22   29.93F HX  81
$$

ILZ005-006-012>014-019>023-252300-
NORTHEAST ILLINOIS

CITY           SKY/WX    TMP DP  RH WIND       PRES   REMARKS
CHICAGO-OHARE  PTSUNNY   78  60  53 SW18G25   29.92R
CHICAGO-MIDWAY PTSUNNY   79  61  53 SW14      29.93R HX  80
AURORA         MOSUNNY   79  62  56 SW17G24   29.93R HX  80
LANSING*       PTSUNNY   78  56  47 SW15G22   29.94F
JOLIET*        PTSUNNY   81  62  51 SW12G17   29.94S HX  82
WAUKEGAN       PTSUNNY   77  60  55 SW17G28   29.89R
DUPAGE AIRPORT PTSUNNY   78  60  53 SW22G29   29.92S
KANKAKEE*      PTSUNNY   80  60  50 SW12      29.96S HX  81
WHEELING       PTSUNNY   78  60  53 SW12G23   29.92R
MORRIS*        MOSUNNY   79  62  56 SW15G22   29.93S HX  80
ROMEOVILLE*    PTSUNNY   79  60  52 SW17G25   29.94R HX  80
NORTHERLY ISL    N/A     78  58  49 S13         N/A
$$

LMZ740>746-252300-
SOUTHERN LAKE MICHIGAN

STATION/POSITION SKY/WX   TEMP    WIND        PRES    VSBY  WAVE
                          AIR SEA DIR/SP/G                  HT/PER
                          (F)     (DEG/KT/KT) (MB)    (MI)  (FT/S)
SOUTHERN BUOY              46 38  200/ 10/ 12 1013.1R         2/ 5
HARRISON CRIB              75     230/ 20/ 26   N/A
BURNHAM HARBOR             78     240/ 12/ 17   N/A
CALUMET HARBOR             77     210/  9/ 20   N/A
BURNS HARBOR               76     220/ 16/ 25 1014.2
MICHIGAN CITY              70     220/ 18/ 20   N/A
MICHIGAN CITY 6N           61 52  250/  8/ 10   N/A           2/ 4
ST. JOSEPH                 62 55  260/ 10/ 12   N/A           3/ 4
$$

ILZ025>027-034>036-040-047-049-050-058-095>099-252300-
WEST-CENTRAL ILLINOIS

CITY           SKY/WX    TMP DP  RH WIND       PRES   REMARKS
QUINCY         MOSUNNY   80  63  55 S14       29.93S HX  81
GALESBURG*     MOSUNNY   79  62  54 S16       29.93R HX  81
MACOMB*        MOSUNNY   79  61  54 S14G21    29.95S HX  80
JACKSONVILLE*  MOSUNNY   85  60  42 S15G21    29.94S HX  85
PITTSFIELD*    MOSUNNY   82  63  51 S13       29.95S HX  83
$$

ILZ028>032-037-038-041>044-048-051>054-059>061-252300-
CENTRAL ILLINOIS

CITY           SKY/WX    TMP DP  RH WIND       PRES   REMARKS
PONTIAC        MOSUNNY   82  62  50 SW17G23   29.95F HX  82
BLOOMINGTON    MOSUNNY   81  62  52 SW15      29.98S HX  82
DECATUR        PTSUNNY   82  60  47 SW16      29.97F HX  82
PEORIA         MOSUNNY   83  59  44 SW13      29.93F HX  83
LACON*         SUNNY     79  61  54 SW14G23   29.92F HX  80
LINCOLN*       MOSUNNY   83  60  46 S9G18     29.93F HX  83
SPRINGFIELD    MOSUNNY   84  61  45 S16       29.95F HX  84
TAYLORVILLE    MOSUNNY   79  63  57 S14       29.97S HX  80
$$

ILZ033-039-045-046-055>057-062-063-252300-
EAST-CENTRAL ILLINOIS

CITY           SKY/WX    TMP DP  RH WIND       PRES   REMARKS
CHAMPAIGN      CLOUDY    85  56  37 S16G24    29.98S HX  84
DANVILLE*      CLOUDY    81  62  52 S16       29.96S HX  82
RANTOUL*       CLOUDY    85  58  39 S10G22    29.97F HX  84
MATTOON        CLOUDY    76  65  68 S17G26    30.00F
PARIS*         CLOUDY    81  64  56 S22       30.01S HX  82
$$

ILZ079-100>102-252300-
SOUTHWEST ILLINOIS

CITY           SKY/WX    TMP DP  RH WIND       PRES   REMARKS
ALTON          PTSUNNY   81  70  69 SE15      29.96F HX  84
BELLEVILLE     PTSUNNY   81  69  66 S20G26    29.96F HX  85
CAHOKIA*       PTSUNNY   83  68  60 S14G21    29.96S HX  86
SPARTA*        PTSUNNY   78  69  73 S16       30.01S HX  80
$$

ILZ064>066-069>071-074>076-080>082-084>086-088>090-092>094-252300-
SOUTH-CENTRAL ILLINOIS

CITY           SKY/WX    TMP DP  RH WIND       PRES   REMARKS
CARBONDALE     PTSUNNY   78  67  68 S15       30.01F HX  80
CAIRO*         PTSUNNY   76  69  77 S9        30.04F
EFFINGHAM*     CLOUDY    78  61  55 SE12G18   30.03S HX  80
MARION         PTSUNNY   79  70  73 S12       30.03F HX  81
MT. VERNON     CLOUDY    79  66  65 S13       30.03S HX  81
CENTRALIA*     PTSUNNY   82  65  56 S13       30.01S HX  83
SALEM*         PTSUNNY   81  67  60 S10       30.01F HX  84
METROPOLIS*    CLOUDY    75  69  80 SE7       30.05F
$$

ILZ067-068-072-073-078-083-087-091-252300-
SOUTHEAST ILLINOIS

CITY           SKY/WX    TMP DP  RH WIND       PRES   REMARKS
LAWRENCEVILLE  CLOUDY    78  66  66 S15       30.04F HX  80
FLORA*         CLOUDY    77  65  66 S14       30.03S
FAIRFIELD*     CLOUDY    77  67  71 S10G17    30.02S
HARRISBURG*    CLOUDY    76  68  76 S13       30.05F
ROBINSON*      CLOUDY    78  64  62 SW13      30.05S HX  80
CARMI*         CLOUDY    77  63  61 S14       30.04F
$$

ABBREVIATIONS USED IN REMARKS
   TC - TEMPERATURE IN CELSIUS
  WCI - WIND CHILL INDEX
   HX - HEAT INDEX
  VSB - VISIBILITY
$$




USA.gov is the U.S. government's official web portal to all federal, state and local government web resources and services.